Regional Weather Roundup
Issued by NWS Little Rock, AR

Home | Current Version | Previous Version | Text Only | Print | Product List | Glossary Off
Versions: 1 2 3 4 5 6 7 8 9 10 11 12 13 14 15 16 17 18 19 20 21 22 23 24 25 26 27

000
ASUS44 KLZK 280205
RWRLZK

WEATHER ROUNDUP FOR ARKANSAS
NATIONAL WEATHER SERVICE LITTLE ROCK AR
900 PM CDT FRI MAY 27 2016

NOTE: "FAIR" INDICATES FEW OR NO CLOUDS BELOW 12,000 FEET WITH NO
SIGNIFICANT WEATHER AND/OR OBSTRUCTIONS TO VISIBILITY.

ARZ001-003-010-029-280300-
NORTHWEST ARKANSAS

CITY           SKY/WX    TMP DP  RH WIND       PRES   REMARKS
FAYETTEVILLE   CLOUDY    68  64  87 SE6       29.78R
FORT SMITH     MOCLDY    71  63  75 SE5       29.77R
HARRISON       MOCLDY    69  63  81 S12       29.81R
BENTONVILLE    CLOUDY    70  61  73 S6        29.78R
ROGERS           N/A     69  63  81 S10       29.79R
SILOAM SPGS    CLOUDY    68  57  68 S9        29.78R
HIGHFILL       CLOUDY    69  64  84 S9        29.78R
SPRINGDALE     CLEAR     70  63  78 S7G15     29.80R
$$

ARZ004-005-016-280300-
NORTH CENTRAL ARKANSAS

CITY           SKY/WX    TMP DP  RH WIND       PRES   REMARKS
BATESVILLE     CLOUDY    70  66  88 SE10      29.86R
FLIPPIN        CLOUDY   N/A N/A N/A SE3       29.76R
MTN HOME       CLOUDY    71  63  75 S9        29.78S
$$

ARZ040-041-280300-
WEST CENTRAL ARKANSAS

CITY           SKY/WX    TMP DP  RH WIND       PRES   REMARKS
MENA           CLOUDY    68  64  88 NE3       29.82R
MOUNT IDA      CLOUDY    67  64  90 CALM      29.80R
$$

ARZ009-017-025-026-028-280300-
NORTHEAST ARKANSAS

CITY           SKY/WX    TMP DP  RH WIND       PRES   REMARKS
CORNING          N/A     72  72 100 S17G24    29.85R
JONESBORO      MOCLDY    70  68  93 S13       29.86R
NEWPORT        MOCLDY    70  68  93 S17       29.87R
WALNUT RIDGE   CLOUDY    72  64  78 S15       29.84F
BLYTHEVILLE    CLOUDY    71  69  93 S8        29.86F
$$

ARZ022-023-033-042-044-280300-
CENTRAL ARKANSAS

CITY           SKY/WX    TMP DP  RH WIND       PRES   REMARKS
LITTLE ROCK    CLOUDY    72  65  78 E7        29.84
N LITTLE ROCK    N/A     71  67  87 SE6       29.82R
JACKSONVILLE   CLOUDY    72  70  94 E9        29.83S
SEARCY         CLOUDY    70  70 100 SE10      29.86F
HOT SPRINGS    CLOUDY    69  64  84 SE5       29.84R
RUSSELLVILLE   CLOUDY    71  63  75 VRB3      29.81R
CLINTON        FAIR      72  66  83 CALM      29.83S
$$

ARZ036-280300-
EAST ARKANSAS

CITY           SKY/WX    TMP DP  RH WIND       PRES   REMARKS
WEST MEMPHIS   MOCLDY    69  67  93 S9        29.89R
$$

ARZ050-053-066-070-073-280300-
SOUTHWEST ARKANSAS

CITY           SKY/WX    TMP DP  RH WIND       PRES   REMARKS
ARKADELPHIA    FAIR      69  67  93 VRB3      29.82R
CAMDEN         CLOUDY    68  61  77 CALM      29.81R
TEXARKANA      CLOUDY    65  64  97 CALM      29.80R
EL DORADO      CLOUDY    67  65  93 SE24G35   29.76F
DE QUEEN       CLOUDY    66  65  96 SE5       29.78R
$$

ARZ056-057-069-280300-
SOUTHEAST ARKANSAS

CITY           SKY/WX    TMP DP  RH WIND       PRES   REMARKS
PINE BLUFF     CLOUDY    71  64  78 S14       29.84F
STUTTGART      CLOUDY    73  64  73 SE16      29.87F
MONTICELLO     CLOUDY    68  65  90 SE9G20    29.87R

$$






USA.gov is the U.S. government's official web portal to all federal, state and local government web resources and services.